Regional Weather Roundup
Issued by NWS Austin/San Antonio, TX

Home | Current Version | Previous Version | Text Only | Print | Product List | Glossary On
Versions: 1 2 3 4 5 6 7 8 9 10 11 12 13 14 15 16 17 18 19 20 21 22 23 24 25 26 27 28 29 30 31 32 33 34 35 36 37 38 39 40 41 42 43 44 45 46 47 48 49 50
643
ASUS44 KEWX 241301
RWREWX
SOUTH TEXAS REGIONAL WEATHER ROUNDUP
NATIONAL WEATHER SERVICE AUSTIN/SAN ANTONIO TX
800 AM CDT SAT AUG 24 2019

NOTE: "FAIR" INDICATED FEW OR NO CLOUDS BELOW 12,000 FEET WITH NO
SIGNIFICANT WEATHER AND/OR OBSTRUCTIONS TO VISIBILITY.

* - THESE STATIONS ARE NOT NWS OR FAA STATIONS...AND ARE NOT SUBJECT
    TO NWS AND FAA QUALITY CONTROL.

TXZ171-172-183>190-241400-
TEXAS HILL COUNTRY AND EDWARDS PLATEAU

CITY           SKY/WX    TMP DP  RH WIND       PRES   REMARKS
JUNCTION       CLOUDY    75  72  90 CALM      29.99R
*LLANO         SUNNY     77  75  94 CALM      29.99R
BURNET         SUNNY     76  71  85 CALM      29.98R
*HORSESHOE BAY SUNNY     75  72  88 CALM      29.97R
*KERRVILLE     CLOUDY    75  72  91 CALM      29.98R
*FREDERICKSBRG PTSUNNY   74  72  93 NE3       29.98R FOG
*ROCKSPRINGS   CLOUDY    72  70  94 SE6       30.05R FOG
*BOERNE        CLOUDY    73  73 100 CALM      29.98R
*CASTROVILLE   MOSUNNY   77  74  91 SE3       29.95R
HONDO          CLEAR     77  73  87 SE5       29.94R
*UVALDE        CLEAR     73  73 100 CALM      29.95R
DEL RIO        CLEAR     77  72  84 SE9       29.92R
LAUGHLIN AFB   CLEAR     75  71  88 SE8       29.92R
SPOFFORD       CLEAR     74  73  95 E3        29.87S
*EAGLE PASS    CLEAR     75  72  88 E5        29.92R
CARRIZO SPRGS  CLEAR     73  73 100 CALM      29.91S
$$

TXZ173-191>194-202-209-217>225-228-241400-
CENTRAL AND SOUTH CENTRAL TEXAS

CITY           SKY/WX    TMP DP  RH WIND       PRES   REMARKS
GEORGETOWN     PTSUNNY   76  73  91 VRB3      29.96S
AUSTIN/BERGSTM CLOUDY    77  74  90 SE5       29.93R
AUSTIN/MABRY   CLOUDY    78  73  84 CALM      29.94S
*AUSTIN/EXEC   PTSUNNY   75  73  94 CALM      29.94R
*LAGO VISTA    CLOUDY    75  73  93 E3        29.97R
SAN MARCOS     CLOUDY    77  74  90 E7        29.94S
NEW BRAUNFELS  CLOUDY    77  74  90 E6        29.92R FOG
RANDOLPH AFB   CLOUDY    77  74  91 E3        29.94R
SEGUIN         CLOUDY    76  74  95 CALM      29.97R
KELLY FIELD    PTSUNNY   79  75  86 E5        29.92R
SAN ANTONIO    CLOUDY    78  74  87 E6        29.94R
STINSON FIELD  CLOUDY    80  75  84 SE5       29.91R
PLEASANTON     MOSUNNY   77  74  89 CALM      29.92S
*LA GRANGE     CLOUDY    78  78 100 CALM      29.91S
*GIDDINGS      SUNNY     78  78 100 CALM      29.94S
*GONZALES      CLOUDY    77  77 100 NE6       29.92R
$$

TXZ163>164-176>182-195>201-210>213-226-227-235-241400-
SOUTHEAST TEXAS

CITY           SKY/WX    TMP DP  RH WIND       PRES   REMARKS
COLLEGE STN    MOSUNNY   77  75  93 E7        29.93R
*BRYAN         PTSUNNY   77  77 100 E6        29.95R
*CALDWELL      SUNNY     76  75  94 CALM      29.94R
*CROCKETT      FOG       73  73 100 CALM      29.98S VSB 1/4
*BRENHAM       SUNNY     76  76 100 CALM      29.94R
HUNTSVILLE     FOG       76  74  93 E5        29.95R VSB 1/4
CONROE         MOSUNNY   76  74  93 E3        29.95R
HOUSTON BUSH   LGT RAIN  78  75  90 NE9       29.92S
HOUSTON HOBBY  PTSUNNY   80  75  84 NE6       29.92R
*HOUSTON SW AP PTSUNNY   76  75  96 CALM      29.93S
PEARLAND       PTSUNNY   79  75  87 N6        29.93S
HOUSTON HOOKS  PTSUNNY   77  74  90 NE3       29.94R
ELLINGTON FLD  NOT AVBL
SUGAR LAND     FAIR      79  76  90 NE5       29.92R
*HOUSTON EXEC  FAIR      77  77 100 NE7       29.94S
*CLEVELAND MUN FOG       75  75 100 CALM      29.95S VSB 3/4
*WHARTON       SUNNY     75  74  97 CALM      29.93R
*COLUMBUS      FAIR      76  73  90 CALM      29.94R
*EAGLE LAKE    SUNNY     78  77  98 NE7       29.93R
$$

TXZ214>216-236>238-241400-
THE UPPER TEXAS COAST

CITY           SKY/WX    TMP DP  RH WIND       PRES   REMARKS
*ORANGE        FAIR      78  78 100 CALM      29.95S
PORT ARTHUR    CLOUDY    79  77  94 NE5       29.92R
GALVESTON      PTSUNNY   81  78  91 N7        29.91S
ANGLETON       FAIR      77  75  93 N3        29.92S
*BAY CITY      SUNNY     78  78  98 CALM      29.91S
PALACIOS       SUNNY     81  75  82 NE7       29.90R
$$

TXZ229>234-239>247-241400-
TEXAS COASTAL BEND AND RIO GRANDE PLAINS

CITY           SKY/WX    TMP DP  RH WIND       PRES   REMARKS
VICTORIA       MOSUNNY   77  75  93 NE5       29.91R
*BEEVILLE      NOT AVBL
ROCKPORT       SUNNY     82  79  90 CALM      29.88S FOG     HX  92
*PORT ARANSAS  PTSUNNY   84  80  88 S5        29.89S HX  96
*PORT LAVACA   SUNNY     80  78  95 NE6       29.91R FOG
*INGLESIDE     SUNNY     83  80  90 CALM      29.88S HX  94
CORPUS CHRISTI CLOUDY    81  79  94 SE5       29.88R FOG     HX  90
CORPUS NAS     MOSUNNY   83  82  97 S3        29.88R HX  98
*ROBSTOWN      SUNNY     79  76  91 E5        29.89R
ALICE          SUNNY     78  75  90 E5        29.88R FOG
KINGSVILLE NAS SUNNY     81  77  88 E5        29.88R
COTULLA        CLEAR     81  71  71 NE5       29.91R
LAREDO         MOCLDY    80  72  76 NE9       29.89S
$$

TXZ248>255-241400-
DEEP SOUTH TEXAS

CITY           SKY/WX    TMP DP  RH WIND       PRES   REMARKS
BROWNSVILLE    FAIR      84  82  94 SE5       29.86S HX 100
PORT ISABEL    FAIR      82  80  94 SE6       29.86S FOG     HX  94
HARLINGEN      SUNNY     81  79  94 E5        29.86R HX  90
*HEBBRONVILLE  SUNNY     77  74  89 CALM      29.91R FOG
MCALLEN        SUNNY     82  77  84 SE8       29.87R HAZE    HX  90
*WESLACO       SUNNY     81  77  86 E3        29.86R
FALFURRIAS     SUNNY     81  78  90 E3        29.87S
EDINBURG       FAIR      82  78  89 SE3       29.87R FOG     HX  90
*ZAPATA        FAIR      82  73  73 SE3       29.90R
$$

TXZ213>215-236>238-242>244-246-247-251-254-255-241400-
CMAN STATIONS

STATION/POSITION TIME  TEMP    WIND        PRES    WAVE
                       AIR SEA DIR/SP/G            HT/PER
                 (UTC) (F)     (DEG/KT/KT) (MB)    (FT/S)
SABINE PASS      1230          300/  4/  6 1014.7
NORTH JETTY/GLS  1224   81 85   20/  5/  6 1011.8
EAGLE POINT      1224   79 84   20/  4/  5 1012.2
MORGANS POINT    1230           10/  4/  5 1013.1
PORT O`CONNOR    1230          320/  5/  6 1011.9
PORT ARANSAS     1200   83 86  180/  9/  9 1011.5
MALAQUITE BEACH  1224   83 87  140/  8/ 11 1011.3
BAFFIN BAY       1224   83 87  120/  8/  9 1011.7
PORT ISABEL      1224   82 83  170/  2/  2 1011.7
$$




USA.gov is the U.S. government's official web portal to all federal, state and local government web resources and services.